Voltar ao catálogo

STARLINK-31856

AtivoComunicaçõesVLEO
NORAD 59960·PAYLOAD·🇺🇸 United States

Lançado Jun 5, 2024 de Cape Canaveral Space Force Station

Loading…

Próximas Passagens (próximas 24 horas)

TLE

AtualizadoSource: CelesTrak SupGP

Época: Sep 15, 2026, 02:21 UTC

1 59960C 24107R   26258.09840278 -.00017794  00000+0 -52558-3 0  2589
2 59960  53.1577 262.6252 0001088  83.4051 140.2093 15.34407673    12

Acompanhe STARLINK-31856 em tempo real com AllMySat

Download on the App Store